{"data":{"norad_id":66269,"intl_designator":"2025-247E","name":"STARLINK-34910","alt_names":[],"object_type":"PAYLOAD","status":"ACTIVE","operator":null,"country":"US","launch_date":"2025-10-31","launch_site_code":"AFWTR","launch_vehicle":null,"mission":null,"orbit_class":"UNKNOWN","rcs_meters":null,"size_class":null,"mass_kg":null,"dimensions":null,"purposes":["comms"],"wikipedia_slug":null,"has_3d_model":false,"image_url":null,"decayed_at":null,"tle_current":{"epoch":"2026-05-25T03:38:47.131296Z","epoch_age_seconds":62708,"freshness":"FRESH","line1":"1 66269U 25247E   26145.15193439  .00027927  00000+0  83434-3 0  9993","line2":"2 66269  53.1586 195.3030 0001437  85.1874 274.9292 15.34409721 32756","mean_motion":15.34409721,"eccentricity":0.0001437,"inclination_deg":53.1586,"raan_deg":195.303,"arg_perigee_deg":85.1874,"mean_anomaly_deg":274.9292,"bstar":0.00083434,"rev_number":3275,"period_min":93.847163524324,"perigee_km":461.6913229084,"apogee_km":463.65737208967,"semimajor_km":6840.811347499,"source":"CELESTRAK","updated_at":"2026-05-25T13:38:21.160272Z"}}}